Weather in Hrygorivka

Ukraine / Zaporizhia Region     47°41′36″N   35°21′27″E
temp.,
°C
wind,
m/s
gust,
m/s
humid.,
%
clouds,
%
prec.,
mm/h
press.,
hPa
HPBL,
m
13 june, sun
sun1300:00+18n11750 0.0 101111
03:00+17sse11764 0.0 101111
06:00+18s2275100 0.0 101043
09:00+23ssw34585 0.0 1010657
12:00+25ssw454835 0.0 10101652
15:00+25sw354786 0.0 10091542
18:00+23sse245919 0.0 1009320
21:00+21s5106774 0.1 1009393
14 june, mon
mon1400:00+19sse36800 0.4 1010151
03:00+16se34921 1.4 101081
06:00+17ese34920 0.3 1010141
09:00+22sse34671 0.3 1011658
12:00+25sse46515 0.0 10111848
15:00+26s554424 0.0 10112370
18:00+25s45506 0.0 10111378
21:00+20se11635 0.0 101119
15 june, tue
tue1500:00+19ne12675 0.0 101213
03:00+18nne35747 0.0 101185
06:00+19ne3780100 0.0 1011190
09:00+20ne487886 0.0 1011239
12:00+27e6746100 0.4 10102062
15:00+25e3658100 0.4 1009558
18:00+25se2461100 0.5 1008515
21:00+20n2283100 5.2 100834
16 june, wed
wed1600:00+18e35912 1.5 1008105
03:00+17ese2395100 1.5 100859
06:00+17sse469587 0.0 1009239
09:00+20wsw4481100 0.0 1009409
12:00+19sse5584100 1.6 1011448
15:00+18wsw2279100 3.3 1011303
18:00+16w2294100 10.0 1011190
21:00+16wnw5897100 15.9 1010346
17 june, thu
thu1700:00+16nnw4896100 9.1 1010435
03:00+17n259788 9.8 1010270
06:00+17n359694 0.2 1011318
09:00+18se3489100 0.8 1011429
12:00+22s4474100 0.6 1012952
15:00+24se455799 1.2 10131620
18:00+23sse4465100 0.1 1014931
21:00+20sse1176100 0.3 101511